sat.trackr.live / text

‹ back to catalog

STARLINK-36245

NORAD 68328 · 2026-059H

PAYLOAD ACTIVE UNKNOWN

§ Identity

Operator
Country
US
Launch date
2026-03-22
Launch site
AFETR
Launch vehicle
Mass (kg)
RCS (m²)

Purposes: comms

External: N2YO · Heavens-Above · Gunter

§ Orbital elements

Epoch: 2026-09-20T00:19:28.248096Z

Period
93.85 min
Inclination
53.1573°
Eccentricity
0.0001170
Mean motion
15.34397542 rev/d
Perigee alt
461.9 km
Apogee alt
463.5 km
Semi-major
6,840.8 km
B*
6.3991e-4
RAAN
163.7956°
Arg perigee
81.8436°
Mean anomaly
278.2699°
Rev number
2,795

§ Raw data

STARLINK-362451 68328U 26059H   26263.01352139  .00021304  00000+0  63991-3 0  99922 68328  53.1573 163.7956 0001170  81.8436 278.2699 15.34397542 27958

JSON: /api/v1/satellites/68328 · /tle

For live sub-satellite position, see the globe view (requires WebGL).

§ Visibility from observer

Set your observer location to see the next 7 days of passes ≥ 10°. The values pass through the URL so the page stays shareable.

No JS? Fill the form by hand. The geolocation button needs JavaScript.